Weather History for Centerville, IA

Change the Weather History Date:

Wednesday, December 18, 2013

  Actual Average Record
Temperature  
Mean Temperature 1 °C -  
Max Temperature 9 °C 1 °C 16 °C (1976)
Min Temperature -7 °C -7 °C -25 °C (1985)
Degree Days  
Heating Degree Days 32    
Moisture  
Dew Point -3 °C    
Average Humidity 68    
Maximum Humidity 81    
Minimum Humidity 46    
Precipitation  
Precipitation 0.00 mm - - ()
Sea Level Pressure  
Sea Level Pressure 1013 hPa    
Wind  
Wind Speed 16 km/h (South)    
Max Wind Speed 42 km/h    
Max Gust Speed 50 km/h    
Visibility 16 kilometers    
Events      
Averages and records for this station are not official NWS values.
T = Trace of Precipitation, MM = Missing Value Source: NWS Daily Summary

Daily Weather History Graph

Daily Weather History Graph

Search for Another Location

Airport:

Trip Planner

Search our weather history database for the weather conditions in past years. The results will help you decide how hot, cold, wet, or windy it might be!

Date:

Astronomy

Dec. 18, 2013 Rise Set
Actual Time 7:30 AM CST 4:46 PM CST
Civil Twilight 6:59 AM CST 5:17 PM CST
Nautical Twilight 6:25 AM CST 5:51 PM CST
Astronomical Twilight 5:51 AM CST 6:25 PM CST
Moon 6:19 PM CST (12/18) 8:10 AM CST (12/18)
Length of Visible Light 10h 17m
Length of Day
9h 15m
Full, 98% of the Moon is Illuminated
Dec 18
Full
Dec 25
Last Quarter
Jan 1
New
Jan 7
First Quarter
Jan 15
Full

Hourly Weather History & Observations

Time (CST) Temp. Windchill Dew Point Humidity Pressure Visibility Wind Dir Wind Speed Gust Speed Precip Events Conditions
12:15 AM -7.0 °C -11.4 °C -10.0 °C 80% 1022.6 hPa 16.1 km SW 9.3 km/h / 2.6 m/s - N/A   Clear
12:35 AM -7.0 °C -12.0 °C -10.0 °C 80% 1022.2 hPa 16.1 km SSW 11.1 km/h / 3.1 m/s - N/A   Clear
12:55 AM -7.0 °C -12.0 °C -10.0 °C 80% 1022.2 hPa 16.1 km SSW 11.1 km/h / 3.1 m/s - N/A   Clear
1:15 AM -7.0 °C -12.0 °C -10.0 °C 80% 1021.9 hPa 16.1 km SSW 11.1 km/h / 3.1 m/s - N/A   Clear
1:35 AM -6.0 °C -9.5 °C -10.0 °C 74% 1021.9 hPa 16.1 km SSW 7.4 km/h / 2.1 m/s - N/A   Clear
1:55 AM -6.0 °C -10.2 °C -10.0 °C 74% 1021.6 hPa 16.1 km South 9.3 km/h / 2.6 m/s - N/A   Clear
2:15 AM -5.0 °C -9.0 °C -10.0 °C 68% 1021.6 hPa 16.1 km South 9.3 km/h / 2.6 m/s - N/A   Clear
2:35 AM -6.0 °C -10.2 °C -10.0 °C 74% 1021.2 hPa 16.1 km South 9.3 km/h / 2.6 m/s - N/A   Clear
2:55 AM -7.0 °C -11.4 °C -10.0 °C 80% 1020.9 hPa 16.1 km South 9.3 km/h / 2.6 m/s - N/A   Clear
3:15 AM -7.0 °C -11.4 °C -10.0 °C 80% 1020.5 hPa 16.1 km South 9.3 km/h / 2.6 m/s - N/A   Clear
3:35 AM -7.0 °C -12.0 °C -10.0 °C 80% 1020.5 hPa 16.1 km SSE 11.1 km/h / 3.1 m/s - N/A   Clear
3:55 AM -7.0 °C -12.5 °C -10.0 °C 80% 1020.2 hPa 16.1 km SSE 13.0 km/h / 3.6 m/s - N/A   Clear
4:15 AM -7.0 °C -11.4 °C -10.0 °C 80% 1019.9 hPa 16.1 km SSE 9.3 km/h / 2.6 m/s - N/A   Clear
4:35 AM -6.0 °C -11.7 °C -10.0 °C 74% 1019.5 hPa 16.1 km SSE 14.8 km/h / 4.1 m/s - N/A   Clear
4:55 AM -6.0 °C -10.8 °C -9.0 °C 80% 1019.2 hPa 16.1 km SSE 11.1 km/h / 3.1 m/s - N/A   Clear
5:15 AM -7.0 °C -12.5 °C -10.0 °C 80% 1018.8 hPa 16.1 km SSE 13.0 km/h / 3.6 m/s - N/A   Clear
5:35 AM -6.0 °C -11.7 °C -9.0 °C 80% 1018.5 hPa 16.1 km SE 14.8 km/h / 4.1 m/s - N/A   Clear
5:55 AM -6.0 °C -11.3 °C -9.0 °C 80% 1018.2 hPa 16.1 km SSE 13.0 km/h / 3.6 m/s - N/A   Clear
6:15 AM -5.0 °C -10.1 °C -9.0 °C 74% 1017.8 hPa 16.1 km SSE 13.0 km/h / 3.6 m/s - N/A   Clear
6:35 AM -5.0 °C -9.6 °C -9.0 °C 74% 1017.5 hPa 16.1 km SSE 11.1 km/h / 3.1 m/s - N/A   Clear
6:55 AM -4.0 °C -8.9 °C -9.0 °C 69% 1017.5 hPa 16.1 km SSE 13.0 km/h / 3.6 m/s - N/A   Clear
7:15 AM -4.0 °C -9.3 °C -8.0 °C 74% 1017.2 hPa 16.1 km SSE 14.8 km/h / 4.1 m/s - N/A   Clear
7:35 AM -3.0 °C -8.0 °C -8.0 °C 69% 1016.8 hPa 16.1 km South 14.8 km/h / 4.1 m/s - N/A   Clear
7:55 AM -2.0 °C -7.8 °C -7.0 °C 69% 1016.5 hPa 16.1 km South 20.4 km/h / 5.7 m/s - N/A   Clear
8:15 AM 0.0 °C -6.0 °C -6.0 °C 64% 1016.1 hPa 16.1 km South 25.9 km/h / 7.2 m/s 37.0 km/h / 10.3 m/s N/A   Clear
8:35 AM 2.0 °C -3.8 °C -5.0 °C 60% 1015.5 hPa 16.1 km South 29.6 km/h / 8.2 m/s 38.9 km/h / 10.8 m/s N/A   Clear
8:55 AM 2.0 °C -3.8 °C -5.0 °C 60% 1015.1 hPa 16.1 km South 29.6 km/h / 8.2 m/s - N/A   Clear
9:15 AM 3.0 °C -2.5 °C -5.0 °C 56% 1014.8 hPa 16.1 km South 29.6 km/h / 8.2 m/s 42.6 km/h / 11.8 m/s N/A   Clear
9:35 AM 3.0 °C -2.5 °C -5.0 °C 56% 1014.4 hPa 16.1 km South 29.6 km/h / 8.2 m/s 40.7 km/h / 11.3 m/s N/A   Clear
9:55 AM 4.0 °C -0.8 °C -4.0 °C 56% 1014.4 hPa 16.1 km South 25.9 km/h / 7.2 m/s 38.9 km/h / 10.8 m/s N/A   Clear
10:15 AM 4.0 °C -1.2 °C -4.0 °C 56% 1013.8 hPa 16.1 km South 29.6 km/h / 8.2 m/s 38.9 km/h / 10.8 m/s N/A   Clear
10:35 AM 6.0 °C 1.4 °C -4.0 °C 49% 1013.4 hPa 16.1 km South 29.6 km/h / 8.2 m/s 37.0 km/h / 10.3 m/s N/A   Clear
10:55 AM 7.0 °C 2.2 °C -4.0 °C 46% 1012.8 hPa 16.1 km South 37.0 km/h / 10.3 m/s 50.0 km/h / 13.9 m/s N/A   Clear
11:15 AM 7.0 °C 2.2 °C -3.0 °C 49% 1012.4 hPa 16.1 km South 37.0 km/h / 10.3 m/s 46.3 km/h / 12.9 m/s N/A   Clear
11:35 AM 7.0 °C 2.2 °C -3.0 °C 49% 1011.7 hPa 16.1 km SSW 37.0 km/h / 10.3 m/s 50.0 km/h / 13.9 m/s N/A   Clear
11:55 AM 7.0 °C 2.3 °C -2.0 °C 53% 1011.4 hPa 16.1 km South 35.2 km/h / 9.8 m/s 48.2 km/h / 13.4 m/s N/A   Clear
12:15 PM 8.0 °C 3.6 °C -1.0 °C 53% 1011.1 hPa 16.1 km South 35.2 km/h / 9.8 m/s 40.7 km/h / 11.3 m/s N/A   Clear
12:35 PM 9.0 °C - 0.0 °C 54% 1010.4 hPa 16.1 km SSW 31.5 km/h / 8.7 m/s 40.7 km/h / 11.3 m/s N/A   Clear
12:55 PM 9.0 °C - -1.0 °C 50% 1010.4 hPa 16.1 km SSW 35.2 km/h / 9.8 m/s 44.4 km/h / 12.3 m/s N/A   Clear
1:15 PM 9.0 °C - 0.0 °C 54% 1010.0 hPa 16.1 km SSW 42.6 km/h / 11.8 m/s - N/A   Clear
1:35 PM 9.0 °C - 0.0 °C 54% 1009.4 hPa 16.1 km SSW 31.5 km/h / 8.7 m/s 42.6 km/h / 11.8 m/s N/A   Clear
1:55 PM 8.0 °C 4.3 °C 0.0 °C 57% 1009.4 hPa 16.1 km SSW 25.9 km/h / 7.2 m/s 35.2 km/h / 9.8 m/s N/A   Clear
2:15 PM 9.0 °C - 0.0 °C 54% 1009.0 hPa 16.1 km South 24.1 km/h / 6.7 m/s 33.3 km/h / 9.3 m/s N/A   Clear
2:35 PM 9.0 °C - 0.0 °C 54% 1008.7 hPa 16.1 km South 25.9 km/h / 7.2 m/s - N/A   Clear
2:55 PM 9.0 °C - 0.0 °C 54% 1008.7 hPa 16.1 km South 16.7 km/h / 4.6 m/s - N/A   Clear
3:15 PM 9.0 °C - 1.0 °C 58% 1008.7 hPa 16.1 km South 18.5 km/h / 5.1 m/s - N/A   Clear
3:35 PM 9.0 °C - 2.0 °C 62% 1008.7 hPa 16.1 km SSW 20.4 km/h / 5.7 m/s - N/A   Clear
3:55 PM 9.0 °C - 2.0 °C 62% 1008.4 hPa 16.1 km South 22.2 km/h / 6.2 m/s - N/A   Clear
4:15 PM 9.0 °C - 2.0 °C 62% 1008.4 hPa 16.1 km South 20.4 km/h / 5.7 m/s - N/A   Clear
4:35 PM 9.0 °C - 1.0 °C 58% 1008.4 hPa 16.1 km South 20.4 km/h / 5.7 m/s - N/A   Clear
4:55 PM 8.0 °C 4.6 °C 2.0 °C 66% 1008.4 hPa 16.1 km South 22.2 km/h / 6.2 m/s - N/A   Clear
5:15 PM 8.0 °C 4.8 °C 1.0 °C 62% 1008.4 hPa 16.1 km South 20.4 km/h / 5.7 m/s - N/A   Clear
5:35 PM 7.0 °C 3.8 °C 2.0 °C 71% 1008.7 hPa 16.1 km South 18.5 km/h / 5.1 m/s - N/A   Clear
5:55 PM 7.0 °C 4.0 °C 2.0 °C 71% 1008.7 hPa 16.1 km South 16.7 km/h / 4.6 m/s - N/A   Clear
6:15 PM 7.0 °C 4.0 °C 2.0 °C 71% 1008.7 hPa 16.1 km South 16.7 km/h / 4.6 m/s - N/A   Clear
6:35 PM 7.0 °C 3.8 °C 2.0 °C 71% 1008.7 hPa 16.1 km South 18.5 km/h / 5.1 m/s - N/A   Clear
6:55 PM 7.0 °C 4.0 °C 2.0 °C 71% 1008.7 hPa 16.1 km South 16.7 km/h / 4.6 m/s - N/A   Clear
7:15 PM 7.0 °C 3.8 °C 2.0 °C 71% 1008.7 hPa 16.1 km South 18.5 km/h / 5.1 m/s - N/A   Clear
7:35 PM 7.0 °C 3.6 °C 2.0 °C 71% 1008.7 hPa 16.1 km South 20.4 km/h / 5.7 m/s - N/A   Clear
7:55 PM 7.0 °C 4.0 °C 2.0 °C 71% 1008.7 hPa 16.1 km South 16.7 km/h / 4.6 m/s - N/A   Clear
8:15 PM 7.0 °C 4.0 °C 2.0 °C 71% 1008.7 hPa 16.1 km South 16.7 km/h / 4.6 m/s - N/A   Clear
8:35 PM 7.0 °C 4.0 °C 2.0 °C 71% 1008.7 hPa 16.1 km South 16.7 km/h / 4.6 m/s - N/A   Clear
8:55 PM 7.0 °C 4.5 °C 2.0 °C 71% 1009.0 hPa 16.1 km SSW 13.0 km/h / 3.6 m/s - N/A   Clear
9:15 PM 6.0 °C 3.3 °C 2.0 °C 76% 1009.0 hPa 16.1 km South 13.0 km/h / 3.6 m/s - N/A   Clear
9:35 PM 5.0 °C 2.1 °C 2.0 °C 81% 1009.0 hPa 16.1 km South 13.0 km/h / 3.6 m/s - N/A   Clear
9:55 PM 5.0 °C 2.5 °C 2.0 °C 81% 1009.0 hPa 16.1 km South 11.1 km/h / 3.1 m/s - N/A   Clear
10:15 PM 5.0 °C 2.5 °C 2.0 °C 81% 1009.0 hPa 16.1 km South 11.1 km/h / 3.1 m/s - N/A   Clear
10:35 PM 5.0 °C 2.5 °C 2.0 °C 81% 1009.0 hPa 16.1 km South 11.1 km/h / 3.1 m/s - N/A   Clear
10:55 PM 5.0 °C 2.5 °C 2.0 °C 81% 1009.0 hPa 16.1 km South 11.1 km/h / 3.1 m/s - N/A   Clear
11:15 PM 5.0 °C 2.1 °C 2.0 °C 81% 1009.0 hPa 16.1 km South 13.0 km/h / 3.6 m/s - N/A   Clear
11:35 PM 5.0 °C 2.1 °C 2.0 °C 81% 1009.0 hPa 16.1 km South 13.0 km/h / 3.6 m/s - N/A   Clear
11:55 PM 5.0 °C 1.8 °C 2.0 °C 81% 1008.7 hPa 16.1 km South 14.8 km/h / 4.1 m/s - N/A   Clear